Location: Doussal
(55.6167°N, 116.8333°W)
Time: 18:57:36
(UTC+00:00)

Max Valier Satellite - Pass Details

Date: 29 November 2023
Orbit: 390 x 395 km, 97.1° (Epoch: 22 February)

Event Time Altitude Azimuth Distance (km) Brightness Sun altitude
Rises 14:59:52 0° 28° (NNE) 2,397 ? -6.5°
Reaches altitude 10° 15:02:38 10° 54° (NE) 1,511 ? -6.2°
Maximum altitude 15:04:27 14° 89° (E) 1,264 ? -6.0°
Drops below altitude 10° 15:06:16 10° 124° (ESE) 1,484 ? -5.7°
Sets 15:08:56 0° 150° (SSE) 2,326 ? -5.4°
